Meadville, PA

9:37 AM EST on February 22, 2017 (GMT -0500)
Port Meadville

Weather History for KGKJ - October, 2012

Change the Weather History Date:

Wednesday, October 3, 2012

  Actual Average Record
Temperature  
Mean Temperature 66 °F -  
Max Temperature 73 °F 64 °F 82 °F (1951)
Min Temperature 59 °F 43 °F 30 °F (1958)
Growing Degree Days 16 (Base 50)    
Moisture  
Dew Point 61 °F    
Average Humidity 85    
Maximum Humidity 94    
Minimum Humidity 59    
Precipitation  
Precipitation 0.01 in - - ()
Sea Level Pressure  
Sea Level Pressure 30.01 in    
Wind  
Wind Speed 4 mph (SSW)    
Max Wind Speed 10 mph    
Max Gust Speed -    
Visibility 8 miles    
Events Rain    
Averages and records for this station are not official NWS values.
T = Trace of Precipitation, MM = Missing Value Source: NWS Daily Summary

Daily Weather History Graph

Daily Weather History Graph

Search for Another Location

Airport or City:

Trip Planner

Search our weather history database for the weather conditions in past years. The results will help you decide how hot, cold, wet, or windy it might be!

Date:

Astronomy

Oct. 03, 2012 Rise Set
Actual Time 7:20 AM EDT 6:58 PM EDT
Civil Twilight 6:52 AM EDT 7:26 PM EDT
Nautical Twilight 6:20 AM EDT 7:58 PM EDT
Astronomical Twilight 5:47 AM EDT 8:30 PM EDT
Moon 8:46 PM EDT (10/3) 10:45 AM EDT (10/3)
Length of Visible Light 12h 33m
Length of Day
11h 38m
Waning Gibbous, 89% of the Moon is Illuminated
Oct 3
Waning Gibbous
Oct 8
Last Quarter
Oct 15
New
Oct 21
First Quarter
Oct 29
Full

Hourly Weather History & Observations

Time (EDT) Temp. Dew Point Humidity Pressure Visibility Wind Dir Wind Speed Gust Speed Precip Events Conditions
12:13 AM 64.4 °F 62.6 °F 94% 29.92 in 10.0 mi East 3.5 mph - N/A   Overcast
12:38 AM 64.4 °F 62.6 °F 94% 29.92 in 10.0 mi Calm Calm - N/A   Overcast
12:53 AM 64.0 °F 62.1 °F 93% 29.90 in 9.0 mi Variable 3.5 mph - N/A   Overcast
1:14 AM 64.4 °F 62.6 °F 94% 29.91 in 8.0 mi East 4.6 mph - N/A   Scattered Clouds
1:53 AM 64.0 °F 62.1 °F 93% 29.90 in 8.0 mi Calm Calm - N/A   Mostly Cloudy
2:04 AM 64.4 °F 62.6 °F 94% 29.92 in 7.0 mi East 3.5 mph - N/A   Mostly Cloudy
2:42 AM 64.4 °F 62.6 °F 94% 29.92 in 7.0 mi Variable 3.5 mph - N/A   Overcast
2:53 AM 64.0 °F 62.1 °F 93% 29.93 in 8.0 mi SSW 5.8 mph - N/A   Overcast
3:03 AM 64.4 °F 62.6 °F 94% 29.94 in 6.0 mi Variable 3.5 mph - 0.00 in Rain Light Rain
3:31 AM 64.4 °F 62.6 °F 94% 29.94 in 6.0 mi Calm Calm - 0.01 in   Overcast
3:42 AM 64.4 °F 62.6 °F 94% 29.93 in 7.0 mi Calm Calm - 0.01 in   Overcast
3:53 AM 64.0 °F 62.1 °F 93% 29.91 in 7.0 mi ESE 3.5 mph - 0.01 in Rain Light Rain
4:53 AM 64.0 °F 62.1 °F 93% 29.94 in 6.0 mi Variable 3.5 mph - 0.00 in   Scattered Clouds
5:06 AM 64.4 °F 62.6 °F 94% 29.95 in 7.0 mi Calm Calm - N/A   Mostly Cloudy
5:53 AM 64.0 °F 62.1 °F 93% 29.95 in 8.0 mi South 4.6 mph - N/A   Overcast
6:26 AM 64.4 °F 62.6 °F 94% 29.98 in 4.0 mi South 5.8 mph - N/A   Overcast
6:42 AM 64.4 °F 62.6 °F 94% 29.99 in 1.8 mi South 6.9 mph - N/A   Overcast
6:53 AM 64.0 °F 62.1 °F 93% 29.98 in 0.8 mi South 5.8 mph - N/A   Mist
7:25 AM 64.4 °F 62.6 °F 94% 30.00 in 2.0 mi SW 5.8 mph - N/A   Overcast
7:34 AM 64.4 °F 62.6 °F 94% 30.00 in 3.0 mi SW 5.8 mph - N/A   Overcast
7:53 AM 64.9 °F 63.0 °F 93% 30.00 in 3.0 mi SSW 8.1 mph - N/A   Overcast
8:53 AM 66.0 °F 63.0 °F 90% 30.03 in 6.0 mi SW 5.8 mph - N/A   Overcast
9:53 AM 64.9 °F 62.1 °F 90% 30.06 in 9.0 mi WSW 6.9 mph - N/A   Overcast
10:21 AM 64.4 °F 62.6 °F 94% 30.08 in 7.0 mi West 9.2 mph - N/A   Overcast
10:53 AM 64.9 °F 61.0 °F 87% 30.07 in 7.0 mi SW 6.9 mph - N/A   Overcast
11:53 AM 66.9 °F 61.0 °F 81% 30.07 in 10.0 mi SSW 6.9 mph - N/A   Overcast
12:38 PM 69.8 °F 60.8 °F 73% 30.08 in 10.0 mi South 6.9 mph - N/A   Mostly Cloudy
12:53 PM 70.0 °F 61.0 °F 73% 30.06 in 10.0 mi SSW 5.8 mph - N/A   Mostly Cloudy
1:34 PM 71.6 °F 60.8 °F 69% 30.08 in 10.0 mi South 10.4 mph - N/A   Mostly Cloudy
1:53 PM 70.0 °F 60.1 °F 71% 30.06 in 10.0 mi SSW 6.9 mph - N/A   Overcast
2:16 PM 71.6 °F 60.8 °F 69% 30.07 in 10.0 mi SW 6.9 mph - N/A   Overcast
2:34 PM 71.6 °F 60.8 °F 69% 30.07 in 10.0 mi South 10.4 mph - N/A   Mostly Cloudy
2:53 PM 72.0 °F 60.1 °F 66% 30.06 in 10.0 mi South 9.2 mph - N/A   Mostly Cloudy
3:53 PM 72.0 °F 57.0 °F 59% 30.05 in 10.0 mi SSW 10.4 mph - N/A   Mostly Cloudy
4:53 PM 71.1 °F 59.0 °F 66% 30.06 in 10.0 mi SSW 8.1 mph - N/A   Mostly Cloudy
5:53 PM 71.1 °F 57.9 °F 63% 30.07 in 10.0 mi SSW 4.6 mph - N/A   Clear
6:53 PM 68.0 °F 57.0 °F 68% 30.09 in 10.0 mi SSW 4.6 mph - N/A   Mostly Cloudy
7:53 PM 64.9 °F 55.9 °F 73% 30.11 in 10.0 mi SW 3.5 mph - N/A   Mostly Cloudy
8:53 PM 62.1 °F 55.0 °F 78% 30.13 in 10.0 mi WNW 3.5 mph - N/A   Partly Cloudy
9:53 PM 60.1 °F 57.0 °F 90% 30.15 in 10.0 mi Calm Calm - N/A   Clear
10:53 PM 59.0 °F 57.0 °F 93% 30.15 in 8.0 mi Calm Calm - N/A   Partly Cloudy
11:53 PM 59.0 °F 55.9 °F 90% 30.17 in 10.0 mi Calm Calm - N/A   Overcast